When you browse on this site, cookies collect data to enhance your experience and personalize the content and advertising you see.
Visit our Privacy Policy to learn more. By continuing to use the site, you agree to this use of cookies and data.
  • In Latvia
  • List of Countries
  • For 7 days
  • Water Temperature
  • Weather Map
  • Weather Widgets
  • user-avatar
    Login

    Hourly Weather Ulanskoe

    Today, 8 April, Wednesday

    Time Temperature Precipitation Wind Pressure Humidity
    00:00 +11°C° 0 mm 3 mps 724 mmHg 64%
    01:00 +11°C° 0 mm 3 mps 724 mmHg 65%
    02:00 +12°C° 0 mm 2 mps 725 mmHg 67%
    03:00 +10°C° 0.1 mm 3 mps 725 mmHg 68%
    04:00 +7°C° 0.1 mm 4 mps 726 mmHg 70%
    05:00 +5°C° 0 mm 4 mps 727 mmHg 70%
    06:00 +4°C° 0.5 mm 4 mps 727 mmHg 76%
    07:00 +3°C° 0.5 mm 3 mps 728 mmHg 82%
    08:00 +3°C° 0.5 mm 2 mps 729 mmHg 89%
    09:00 +3°C° 0.1 mm 2 mps 729 mmHg 88%
    10:00 +3°C° 0.1 mm 2 mps 729 mmHg 87%
    11:00 +4°C° 0.1 mm 1 mps 729 mmHg 86%
    12:00 +4°C° 0.1 mm 2 mps 729 mmHg 83%
    13:00 +4°C° 0.1 mm 2 mps 729 mmHg 79%
    14:00 +5°C° 0.1 mm 2 mps 729 mmHg 76%
    15:00 +4°C° 0.2 mm 2 mps 729 mmHg 81%
    16:00 +4°C° 0.2 mm 2 mps 729 mmHg 86%
    17:00 +4°C° 0.2 mm 2 mps 729 mmHg 91%
    18:00 +4°C° 0.2 mm 1 mps 729 mmHg 92%
    19:00 +4°C° 0.2 mm 1 mps 729 mmHg 94%
    20:00 +4°C° 0.2 mm 1 mps 729 mmHg 95%
    21:00 +4°C° 0.1 mm 1 mps 729 mmHg 95%
    22:00 +4°C° 0.1 mm 1 mps 729 mmHg 95%
    23:00 +4°C° 0.1 mm 1 mps 729 mmHg 95%

    Tomorrow, 9 April, Thursday

    Time Temperature Precipitation Wind Pressure Humidity
    00:00 +4°C° 0.1 mm 1 mps 728 mmHg 95%
    01:00 +4°C° 0.1 mm 1 mps 728 mmHg 95%
    02:00 +3°C° 0.1 mm 1 mps 728 mmHg 95%
    03:00 +3°C° 0.1 mm 1 mps 728 mmHg 94%
    04:00 +3°C° 0.1 mm 1 mps 728 mmHg 93%
    05:00 +2°C° 0.1 mm 2 mps 728 mmHg 91%
    06:00 +2°C° 0.6 mm 2 mps 728 mmHg 90%
    07:00 +1°C° 0.6 mm 3 mps 729 mmHg 89%
    08:00 0°C° 0.6 mm 4 mps 729 mmHg 88%
    09:00 0°C° 1.4 mm 4 mps 729 mmHg 91%
    10:00 0°C° 1.4 mm 4 mps 730 mmHg 94%
    11:00 0°C° 1.4 mm 5 mps 730 mmHg 97%
    12:00 0°C° 1 mm 5 mps 731 mmHg 96%
    13:00 0°C° 1 mm 5 mps 731 mmHg 95%
    14:00 -1°C° 1 mm 6 mps 732 mmHg 95%
    15:00 0°C° 0.6 mm 5 mps 733 mmHg 94%
    16:00 0°C° 0.6 mm 5 mps 734 mmHg 94%
    17:00 0°C° 0.6 mm 4 mps 735 mmHg 94%
    18:00 0°C° 0.3 mm 3 mps 735 mmHg 94%
    19:00 +1°C° 0.3 mm 2 mps 736 mmHg 94%
    20:00 +2°C° 0.3 mm 1 mps 737 mmHg 95%
    21:00 +2°C° 0 mm 1 mps 737 mmHg 93%
    22:00 +2°C° 0 mm 1 mps 738 mmHg 92%
    23:00 +1°C° 0 mm 1 mps 738 mmHg 91%

    Day after tomorrow, 10 April, Friday

    Time Temperature Precipitation Wind Pressure Humidity
    00:00 +1°C° 0 mm 1 mps 738 mmHg 89%
    01:00 +1°C° 0 mm 1 mps 738 mmHg 87%
    02:00 0°C° 0 mm 1 mps 738 mmHg 85%
    03:00 0°C° 0 mm 1 mps 739 mmHg 85%
    04:00 0°C° 0 mm 1 mps 739 mmHg 84%
    05:00 -1°C° 0 mm 1 mps 739 mmHg 83%
    06:00 +1°C° 0 mm 1 mps 739 mmHg 79%
    07:00 +2°C° 0 mm 1 mps 739 mmHg 74%
    08:00 +4°C° 0 mm 1 mps 739 mmHg 70%
    09:00 +5°C° 0 mm 1 mps 738 mmHg 69%
    10:00 +5°C° 0 mm 1 mps 738 mmHg 68%
    11:00 +6°C° 0 mm 1 mps 738 mmHg 67%
    12:00 +6°C° 0 mm 1 mps 737 mmHg 66%
    13:00 +7°C° 0 mm 1 mps 737 mmHg 64%
    14:00 +6°C° 0 mm 2 mps 736 mmHg 62%
    15:00 +6°C° 0 mm 2 mps 736 mmHg 64%
    16:00 +5°C° 0 mm 2 mps 736 mmHg 65%
    17:00 +5°C° 0 mm 2 mps 735 mmHg 66%
    18:00 +4°C° 0 mm 2 mps 735 mmHg 68%
    19:00 +4°C° 0 mm 1 mps 735 mmHg 69%
    20:00 +2°C° 0 mm 1 mps 735 mmHg 71%
    21:00 +2°C° 0 mm 1 mps 735 mmHg 72%
    22:00 +2°C° 0 mm 1 mps 735 mmHg 72%
    23:00 +2°C° 0 mm 1 mps 735 mmHg 73%

    11 April, Saturday

    Time Temperature Precipitation Wind Pressure Humidity
    00:00 +2°C° 0 mm 1 mps 734 mmHg 74%
    01:00 +2°C° 0 mm 1 mps 734 mmHg 76%
    02:00 +2°C° 0 mm 1 mps 734 mmHg 77%
    03:00 +2°C° 0 mm 1 mps 734 mmHg 78%
    04:00 +1°C° 0 mm 1 mps 734 mmHg 80%
    05:00 +1°C° 0 mm 1 mps 734 mmHg 81%
    06:00 +2°C° 0 mm 1 mps 735 mmHg 78%
    07:00 +4°C° 0 mm 1 mps 735 mmHg 75%
    08:00 +5°C° 0 mm 1 mps 735 mmHg 72%
    09:00 +6°C° 0 mm 1 mps 734 mmHg 69%
    10:00 +6°C° 0 mm 2 mps 734 mmHg 65%
    11:00 +7°C° 0 mm 2 mps 734 mmHg 62%
    12:00 +8°C° 0 mm 2 mps 734 mmHg 61%
    13:00 +9°C° 0 mm 2 mps 734 mmHg 60%
    14:00 +9°C° 0 mm 2 mps 733 mmHg 58%
    15:00 +9°C° 0 mm 2 mps 733 mmHg 60%
    16:00 +9°C° 0 mm 2 mps 733 mmHg 62%
    17:00 +8°C° 0 mm 2 mps 733 mmHg 64%
    18:00 +8°C° 0 mm 1 mps 733 mmHg 67%
    19:00 +7°C° 0 mm 1 mps 733 mmHg 70%
    20:00 +6°C° 0 mm 1 mps 732 mmHg 73%
    21:00 +6°C° 0 mm 1 mps 732 mmHg 73%
    22:00 +5°C° 0 mm 1 mps 732 mmHg 73%
    23:00 +5°C° 0 mm 1 mps 732 mmHg 73%

    12 April, Sunday

    Time Temperature Precipitation Wind Pressure Humidity
    00:00 +4°C° 0 mm 0 mps 731 mmHg 74%
    01:00 +4°C° 0 mm 0 mps 731 mmHg 75%
    02:00 +3°C° 0 mm 0 mps 731 mmHg 76%
    03:00 +4°C° 0 mm 1 mps 731 mmHg 77%
    04:00 +4°C° 0 mm 1 mps 730 mmHg 78%
    05:00 +4°C° 0 mm 1 mps 730 mmHg 79%
    06:00 +5°C° 0 mm 1 mps 730 mmHg 74%
    07:00 +7°C° 0 mm 1 mps 730 mmHg 70%
    08:00 +8°C° 0 mm 1 mps 730 mmHg 65%
    09:00 +10°C° 0 mm 1 mps 730 mmHg 60%
    10:00 +12°C° 0 mm 1 mps 729 mmHg 54%
    11:00 +13°C° 0 mm 1 mps 729 mmHg 48%
    12:00 +14°C° 0 mm 2 mps 728 mmHg 46%
    13:00 +15°C° 0 mm 2 mps 728 mmHg 44%
    14:00 +16°C° 0 mm 2 mps 728 mmHg 42%
    15:00 +16°C° 0 mm 2 mps 727 mmHg 45%
    16:00 +15°C° 0 mm 2 mps 727 mmHg 48%
    17:00 +15°C° 0 mm 2 mps 726 mmHg 51%
    18:00 +13°C° 0 mm 2 mps 726 mmHg 54%
    19:00 +11°C° 0 mm 3 mps 725 mmHg 57%
    20:00 +9°C° 0 mm 3 mps 725 mmHg 60%
    21:00 +9°C° 0 mm 3 mps 725 mmHg 59%
    22:00 +8°C° 0 mm 2 mps 724 mmHg 58%
    23:00 +8°C° 0 mm 2 mps 724 mmHg 57%

    13 April, Monday

    Time Temperature Precipitation Wind Pressure Humidity
    00:00 +8°C° 0 mm 2 mps 724 mmHg 57%
    01:00 +8°C° 0 mm 2 mps 723 mmHg 58%
    02:00 +7°C° 0 mm 3 mps 722 mmHg 59%
    03:00 +8°C° 0 mm 3 mps 722 mmHg 58%
    04:00 +7°C° 0 mm 4 mps 722 mmHg 57%
    05:00 +8°C° 0 mm 4 mps 721 mmHg 56%
    06:00 +9°C° 0 mm 5 mps 721 mmHg 53%
    07:00 +11°C° 0 mm 6 mps 721 mmHg 49%
    08:00 +13°C° 0 mm 6 mps 721 mmHg 45%
    09:00 +13°C° 0.1 mm 6 mps 721 mmHg 51%
    10:00 +12°C° 0.1 mm 7 mps 721 mmHg 57%
    11:00 +11°C° 0.1 mm 7 mps 721 mmHg 63%
    12:00 +12°C° 0 mm 7 mps 721 mmHg 65%
    13:00 +12°C° 0 mm 8 mps 721 mmHg 67%
    14:00 +12°C° 0 mm 8 mps 721 mmHg 69%
    15:00 +12°C° 0.3 mm 7 mps 722 mmHg 72%
    16:00 +13°C° 0.3 mm 6 mps 722 mmHg 74%
    17:00 +14°C° 0.3 mm 5 mps 722 mmHg 76%
    18:00 +13°C° 0.5 mm 4 mps 723 mmHg 81%
    19:00 +12°C° 0.5 mm 3 mps 724 mmHg 85%
    20:00 +11°C° 0.5 mm 3 mps 724 mmHg 90%
    21:00 +11°C° 1 mm 3 mps 725 mmHg 91%
    22:00 +11°C° 1 mm 3 mps 725 mmHg 92%
    23:00 +11°C° 1 mm 4 mps 726 mmHg 93%
    Show more